Peoria, IL

7:41 PM CDT on October 22, 2019 (GMT -0500)
Greater Peoria Regional

Weather History for KPIA - August, 2019

Change the Weather History Date:

Friday, August 16, 2019

  Actual Average Record
Temperature  
Mean Temperature 76 °F 74 °F  
Max Temperature 86 °F 84 °F 102 °F (1988)
Min Temperature 66 °F 64 °F 51 °F (2004)
Degree Days  
Heating Degree Days 0 0  
Month to date heating degree days 0 0  
Since 1 June heating degree days 5 19  
Since 1 July heating degree days 0 1  
Cooling Degree Days 11 9  
Month to date cooling degree days 164 153  
Year to date cooling degree days 876 784  
Since 1 June cooling degree days 795 703  
Growing Degree Days 26 (Base 50)    
Moisture  
Dew Point 66 °F    
Average Humidity 73    
Maximum Humidity 87    
Minimum Humidity 58    
Precipitation  
Precipitation T in 0.10 in 1.35 in (1898)
Month to date precipitation 1.48 1.66  
Year to date precipitation 31.16 23.37  
Snow  
Snow 0.00 in 0.00 in 0.00 in ()
Month to date snowfall 0.0 0.0  
Since 1 June snowfall 0.0 0.0  
Since 1 July snowfall 0.0 0.0  
Snow Depth 0.00 in    
Sea Level Pressure  
Sea Level Pressure 29.90 in    
Wind  
Wind Speed 7 mph (SSW)    
Max Wind Speed 14 mph    
Max Gust Speed 20 mph    
Visibility 10 miles    
Events Rain , Thunderstorm    
T = Trace of Precipitation, MM = Missing Value Source: NWS Daily Summary

Daily Weather History Graph

Daily Weather History Graph

Search for Another Location

Airport or City:

Astronomy

Aug. 16, 2019 Rise Set
Actual Time 6:09 AM CDT 7:55 PM CDT
Civil Twilight 5:40 AM CDT 8:24 PM CDT
Nautical Twilight 5:05 AM CDT 9:00 PM CDT
Astronomical Twilight 4:26 AM CDT 9:37 PM CDT
Moon 8:54 PM CDT (8/16) 7:01 AM CDT (8/16)
Length of Visible Light 14h 44m
Length of Day
13h 45m
Full, 99% of the Moon is Illuminated
Aug 16
Full
Aug 23
Last Quarter
Aug 30
New
Sep 5
First Quarter
Sep 13
Full

Hourly Weather History & Observations

Time (CDT) Temp. Heat Index Dew Point Humidity Pressure Visibility Wind Dir Wind Speed Gust Speed Precip Events Conditions
12:54 AM 66.9 °F - 61.0 °F 81% 29.97 in 10.0 mi Calm Calm - N/A   Clear
1:54 AM 66.9 °F - 61.0 °F 81% 29.94 in 10.0 mi Calm Calm - N/A   Clear
2:54 AM 66.9 °F - 61.0 °F 81% 29.93 in 10.0 mi SE 5.8 mph - N/A   Clear
3:54 AM 69.1 °F - 62.1 °F 78% 29.93 in 10.0 mi SE 3.5 mph - N/A   Overcast
4:54 AM 68.0 °F - 62.1 °F 81% 29.92 in 10.0 mi ESE 4.6 mph - N/A   Overcast
5:54 AM 66.9 °F - 63.0 °F 87% 29.91 in 10.0 mi ESE 3.5 mph - N/A   Scattered Clouds
6:54 AM 69.1 °F - 63.0 °F 81% 29.91 in 10.0 mi SE 5.8 mph - N/A   Clear
7:54 AM 70.0 °F - 63.0 °F 78% 29.92 in 10.0 mi SSE 6.9 mph - N/A   Overcast
8:54 AM 73.0 °F - 64.0 °F 73% 29.93 in 10.0 mi South 9.2 mph - N/A   Mostly Cloudy
9:54 AM 73.9 °F - 64.9 °F 73% 29.93 in 10.0 mi South 12.7 mph - N/A   Clear
10:54 AM 77.0 °F - 66.0 °F 69% 29.92 in 10.0 mi SW 8.1 mph - N/A   Clear
11:54 AM 80.1 °F 82.1 °F 66.0 °F 62% 29.91 in 10.0 mi SW 4.6 mph - N/A   Clear
12:54 PM 82.0 °F 84.5 °F 66.9 °F 60% 29.90 in 10.0 mi WSW 11.5 mph - N/A   Scattered Clouds
1:05 PM 81.0 °F 83.0 °F 66.0 °F 60% 29.90 in 10.0 mi SSW 8.1 mph - N/A   Mostly Cloudy
1:06 PM 81.0 °F 83.0 °F 66.0 °F 60% 29.90 in 10.0 mi SSW 8.1 mph - N/A   Mostly Cloudy
1:11 PM 82.4 °F 84.6 °F 66.2 °F 58% 29.90 in 10.0 mi West 4.6 mph - N/A   Mostly Cloudy
1:54 PM 82.9 °F 85.8 °F 68.0 °F 60% 29.88 in 10.0 mi SW 5.8 mph - N/A   Mostly Cloudy
2:54 PM 82.0 °F 84.9 °F 68.0 °F 62% 29.86 in 10.0 mi Variable 3.5 mph - N/A   Mostly Cloudy
3:54 PM 84.9 °F 88.2 °F 68.0 °F 57% 29.86 in 10.0 mi WSW 9.2 mph - N/A   Overcast
4:54 PM 84.0 °F 87.0 °F 68.0 °F 58% 29.87 in 10.0 mi WSW 11.5 mph - N/A   Partly Cloudy
5:54 PM 84.0 °F 87.0 °F 68.0 °F 58% 29.86 in 10.0 mi SW 12.7 mph - N/A   Clear
6:54 PM 82.0 °F 85.5 °F 69.1 °F 65% 29.85 in 10.0 mi WSW 6.9 mph - N/A   Partly Cloudy
7:54 PM 80.1 °F 82.9 °F 69.1 °F 69% 29.85 in 10.0 mi SSW 6.9 mph - N/A   Mostly Cloudy
8:54 PM 78.1 °F - 70.0 °F 76% 29.87 in 10.0 mi SSW 8.1 mph - N/A   Mostly Cloudy
9:34 PM 75.9 °F - 71.1 °F 85% 29.89 in 10.0 mi SSW 9.2 mph - 0.00 in Rain , Thunderstorm Light Thunderstorms and Rain
9:49 PM 75.2 °F - 71.6 °F 89% 29.89 in 10.0 mi SSW 11.5 mph - 0.00 in   Scattered Clouds
9:54 PM 75.9 °F - 70.0 °F 82% 29.88 in 10.0 mi SW 11.5 mph - 0.00 in   Partly Cloudy
10:54 PM 75.9 °F - 70.0 °F 82% 29.89 in 10.0 mi SW 9.2 mph - N/A   Mostly Cloudy
11:54 PM 73.9 °F - 70.0 °F 87% 29.90 in 10.0 mi SSW 6.9 mph - N/A   Partly Cloudy